This demonstration page uses our WeatherBlox Daily Observations layout. Learn more.

Left ArrowRight Arrow

41.12389, -100.76542

Hourly Observations for July 18, 2016

Temp ( °F °C ) Dew Point ( °F °C ) Humidity (%) Winds ( mph kmh ) Pressure ( in mb ) Visibility ( mi km ) Precip ( " mm )
12:53 am 00:53 Clear 72 22.2 69 20.6 91 91 ENE 12 19 30.06 1018 10 16 0.00 0.00
1:11 am 01:11 Mostly Cloudy 72 22.2 69 20.6 91 91 ENE 9 15 30.00 1016 10 16 0.00 0.00
1:24 am 01:24 Partly Cloudy 72 22 70 21 94 94 ENE 7 11 30.00 1016 10 16 0.00 0.00
1:53 am 01:53 Clear 72 22.2 69 20.6 91 91 NE 13 20 30.05 1018 10 16 0.00 0.00
2:41 am 02:41 Partly Cloudy 71 21.7 69 20.6 94 94 E 6 9 30.00 1016 10 16 0.00 0.00
2:53 am 02:53 Mostly Cloudy 71 21.7 69 20.6 94 94 E 3 6 30.05 1018 10 16 0.00 0.00
3:53 am 03:53 Cloudy 72 22.2 70 21.1 94 94 Calm 30.05 1018 8 13 0.00 0.00
4:53 am 04:53 Cloudy 72 22.2 70 21.1 94 94 E 8 13 30.03 1017 8 13 0.00 0.00
5:53 am 05:53 Cloudy 72 22.2 70 21.1 94 94 ENE 5 7 30.04 1017 7 11 0.00 0.00
6:53 am 06:53 Cloudy with Mist and Fog 71 21.7 69 20.6 94 94 ENE 6 9 30.04 1017 5 8 0.00 0.00
7:29 am 07:29 Mostly Cloudy with Mist and Fog 72 22 70 21 94 94 ESE 7 11 30.03 1017 5 8 0.00 0.00
7:53 am 07:53 Mostly Cloudy 72 22.2 70 21.1 94 94 E 8 13 30.06 1018 8 13 0.00 0.00
8:53 am 08:53 Cloudy 74 23.3 70 21.1 88 88 ESE 10 17 30.06 1018 10 16 0.00 0.00
9:53 am 09:53 Mostly Cloudy 77 25 71 21.7 82 82 ESE 10 17 30.06 1018 10 16 0.00 0.00
10:32 am 10:32 Mostly Cloudy 79 26.1 71 21.7 77 77 SSE 7 11 30.00 1016 10 16 0.00 0.00
10:43 am 10:43 Cloudy 78 25.6 71 21.7 79 79 SE 7 11 30.00 1016 10 16 0.00 0.00
10:53 am 10:53 Cloudy 79 26.1 71 21.7 77 77 SE 8 13 30.09 1019 10 16 0.00 0.00
11:53 am 11:53 Cloudy 80 26.7 72 22.2 76 76 SE 9 15 30.10 1019 10 16 0.00 0.00
12:53 pm 12:53 Cloudy 81 27.2 72 22.2 74 74 SE 10 17 30.10 1019 10 16 0.00 0.00
1:53 pm 13:53 Mostly Cloudy 83 28.3 72 22.2 70 70 E 13 20 30.08 1019 10 16 0.00 0.00
2:31 pm 14:31 Mostly Sunny 84 28.9 72 22.2 67 67 ESE 14 22 29.97 1015 10 16 0.00 0.00
2:53 pm 14:53 Mostly Sunny 84 28.9 72 22.2 67 67 E 15 24 30.05 1018 10 16 0.00 0.00
3:53 pm 15:53 Partly Cloudy 85 29.4 72 22.2 65 65 SE 15 24 30.04 1017 10 16 0.00 0.00
4:53 pm 16:53 Sunny 86 30 72 22.2 63 63 ESE 17 28 30.03 1017 10 16 0.00 0.00
5:53 pm 17:53 Mostly Sunny 86 30 73 23 66 66 ESE 10 17 29.91 1013 10 16 0.00 0.00
6:53 pm 18:53 Sunny 85 29.4 72 22.2 65 65 ESE 14 22 30.01 1016 10 16 0.00 0.00
7:53 pm 19:53 Mostly Sunny 82 27.8 73 22.8 74 74 ESE 13 20 30.00 1016 10 16 0.00 0.00
8:53 pm 20:53 Sunny 78 25.6 73 22.8 85 85 E 7 11 30.02 1017 10 16 0.00 0.00
9:53 pm 21:53 Clear 77 25 73 22.8 88 88 E 8 13 30.01 1016 10 16 0.00 0.00
10:53 pm 22:53 Clear 77 25 73 22.8 88 88 ESE 8 13 30.02 1017 10 16 0.00 0.00
11:11 pm 23:11 Mostly Clear with Thunderstorms 77 25 73 22.8 88 88 SW 20 31 30.00 1016 10 16 0.00 0.00
11:18 pm 23:18 Windy with Storms Likely 75 24 63 17 65 65 W 37 59 30.06 1018 10 16 0.00 0.00
11:27 pm 23:27 Mostly Cloudy with Strong Thunderstorms 69 20.6 64 17.8 84 84 W 32 52 30.09 1019 2 3 0.04 1.02
11:33 pm 23:33 Mostly Cloudy with Strong Thunderstorms 68 20 65 18.3 90 90 W 26 43 30.09 1019 1 2 0.14 3.56
11:40 pm 23:40 Cloudy with Strong Thunderstorms 68 20 64 18 88 88 WNW 30 48 30.09 1019 2 2 0.00 0.00
11:47 pm 23:47 Cloudy with Strong Thunderstorms 68 20 66 19 94 94 WNW 29 46 30.09 1019 3 5 0.32 8.13
11:53 pm 23:53 Cloudy with Strong Thunderstorms 69 20.6 66 18.9 90 90 WNW 21 33 30.13 1020 2 3 0.35 8.89

Powered by AerisWeather